QPF
0.12 0.11 0.07 0.03 0.02 0.01 0.01 0.01 0.01 0.01 0.00 0.01 0.00 0.00 0.00 0.00 0.00 0.00 0.00 0.00 0.00 0.00 0.00 0.00 0.00 0.00 0.00 0.00 0.00 0.00 0.00 0.00 0.00 0.00 0.00 0.00 0.00 0.00 0.00 0.00 0.00 0.00 0.00 0.00
0.15 0.09 0.02 0.02 0.02 0.03 0.03 0.03 0.02 0.02 0.01 0.01 0.01 0.00 0.00 0.00 0.00 0.00 0.00 0.00 0.00 0.00 0.00 0.00 0.00 0.00 0.00 0.00 0.00 0.00 0.00 0.00 0.00 0.00 0.00 0.00 0.00 0.00 0.00 0.00 0.00 0.00 0.00 0.00
0.08 0.04 0.03 0.05 0.04 0.04 0.03 0.02 0.02 0.03 0.02 0.02 0.01 0.01 0.00 0.00 0.00 0.00 0.00 0.00 0.00 0.00 0.00 0.00 0.00 0.00 0.00 0.00 0.00 0.00 0.00 0.00 0.00 0.00 0.00 0.00 0.00 0.00 0.00 0.00 0.00 0.00 0.00 0.00
0.06 0.03 0.04 0.06 0.06 0.05 0.04 0.02 0.02 0.03 0.04 0.04 0.02 0.01 0.00 0.00 0.00 0.00 0.00 0.00 0.00 0.00 0.00 0.00 0.00 0.00 0.00 0.00 0.00 0.00 0.00 0.00 0.00 0.00 0.00 0.00 0.00 0.00 0.00 0.00 0.00 0.00 0.00 0.00
0.08 0.04 0.04 0.05 0.04 0.04 0.03 0.02 0.04 0.05 0.06 0.06 0.04 0.02 0.00 0.00 0.00 0.00 0.00 0.00 0.00 0.00 0.00 0.00 0.00 0.00 0.00 0.00 0.00 0.00 0.00 0.00 0.00 0.00 0.00 0.00 0.00 0.00 0.00 0.00 0.00 0.00 0.00 0.00
0.08 0.05 0.04 0.03 0.04 0.05 0.06 0.07 0.09 0.11 0.15 0.15 0.05 0.02 0.01 0.00 0.00 0.00 0.00 0.00 0.00 0.00 0.00 0.00 0.00 0.00 0.00 0.00 0.00 0.00 0.00 0.00 0.00 0.00 0.00 0.00 0.00 0.00 0.00 0.00 0.00 0.00 0.00 0.00
0.11 0.09 0.07 0.04 0.07 0.09 0.11 0.14 0.21 0.24 0.23 0.14 0.02 0.02 0.01 0.00 0.00 0.00 0.00 0.00 0.00 0.00 0.00 0.00 0.00 0.00 0.00 0.00 0.00 0.00 0.00 0.00 0.00 0.00 0.00 0.00 0.00 0.00 0.00 0.00 0.00 0.00 0.00 0.00
0.10 0.09 0.06 0.05 0.05 0.06 0.07 0.09 0.14 0.14 0.09 0.03 0.01 0.01 0.00 0.00 0.00 0.00 0.00 0.00 0.00 0.00 0.00 0.00 0.00 0.00 0.00 0.00 0.00 0.00 0.00 0.00 0.00 0.00 0.00 0.00 0.00 0.00 0.00 0.00 0.00 0.00 0.00 0.00
0.06 0.05 0.03 0.03 0.03 0.04 0.06 0.07 0.06 0.08 0.07 0.04 0.02 0.00 0.00 0.00 0.00 0.00 0.00 0.00 0.00 0.00 0.00 0.00 0.00 0.00 0.00 0.00 0.00 0.00 0.00 0.00 0.00 0.00 0.00 0.00 0.00 0.00 0.00 0.00 0.00 0.00 0.00 0.00
0.05 0.06 0.04 0.03 0.06 0.07 0.06 0.07 0.09 0.14 0.17 0.10 0.03 0.00 0.00 0.00 0.00 0.00 0.00 0.00 0.00 0.00 0.00 0.00 0.00 0.00 0.00 0.00 0.00 0.00 0.00 0.00 0.00 0.00 0.00 0.00 0.00 0.00 0.00 0.00 0.00 0.00 0.00 0.00
0.06 0.07 0.07 0.07 0.07 0.05 0.07 0.09 0.11 0.13 0.12 0.08 0.04 0.01 0.00 0.00 0.00 0.00 0.00 0.00 0.00 0.00 0.00 0.00 0.00 0.00 0.00 0.00 0.00 0.00 0.00 0.00 0.00 0.00 0.00 0.00 0.00 0.00 0.00 0.00 0.00 0.00 0.00 0.00
0.05 0.08 0.08 0.07 0.05 0.03 0.06 0.06 0.08 0.11 0.10 0.05 0.03 0.01 0.00 0.00 0.00 0.00 0.00 0.00 0.00 0.00 0.00 0.00 0.00 0.00 0.00 0.00 0.00 0.00 0.00 0.00 0.00 0.00 0.00 0.00 0.00 0.00 0.00 0.00 0.00 0.00 0.00 0.00
0.04 0.09 0.11 0.13 0.11 0.06 0.07 0.06 0.07 0.08 0.09 0.08 0.06 0.02 0.00 0.00 0.00 0.00 0.00 0.00 0.00 0.00 0.00 0.00 0.00 0.00 0.00 0.00 0.00 0.00 0.00 0.00 0.00 0.00 0.00 0.00 0.00 0.00 0.00 0.00 0.00 0.00 0.00 0.00
0.07 0.07 0.05 0.06 0.05 0.03 0.03 0.03 0.04 0.09 0.13 0.10 0.05 0.02 0.00 0.00 0.00 0.00 0.00 0.00 0.00 0.00 0.00 0.00 0.00 0.00 0.00 0.00 0.00 0.00 0.00 0.00 0.00 0.00 0.00 0.00 0.00 0.00 0.00 0.00 0.00 0.00 0.00 0.00
0.11 0.08 0.03 0.01 0.01 0.02 0.02 0.02 0.03 0.06 0.07 0.07 0.03 0.01 0.01 0.01 0.00 0.00 0.00 0.00 0.00 0.00 0.00 0.00 0.00 0.00 0.00 0.00 0.00 0.00 0.00 0.00 0.00 0.00 0.00 0.00 0.00 0.00 0.00 0.00 0.00 0.00 0.00 0.00
0.12 0.09 0.04 0.03 0.02 0.02 0.02 0.02 0.02 0.03 0.04 0.04 0.03 0.01 0.01 0.01 0.01 0.00 0.00 0.00 0.00 0.00 0.00 0.00 0.00 0.00 0.00 0.00 0.00 0.00 0.00 0.00 0.00 0.00 0.00 0.00 0.00 0.00 0.00 0.00 0.00 0.00 0.00 0.00
0.09 0.10 0.09 0.06 0.03 0.05 0.05 0.01 0.01 0.01 0.01 0.02 0.03 0.02 0.01 0.01 0.01 0.01 0.01 0.00 0.00 0.00 0.00 0.00 0.00 0.00 0.00 0.00 0.00 0.00 0.00 0.00 0.00 0.00 0.00 0.00 0.00 0.00 0.00 0.00 0.00 0.00 0.00 0.00
0.06 0.06 0.09 0.09 0.08 0.11 0.04 0.00 0.00 0.01 0.01 0.01 0.01 0.01 0.01 0.01 0.01 0.01 0.00 0.00 0.00 0.00 0.00 0.00 0.00 0.00 0.00 0.00 0.00 0.00 0.00 0.00 0.00 0.00 0.00 0.00 0.00 0.00 0.00 0.00 0.00 0.00 0.00 0.00
0.05 0.06 0.08 0.09 0.09 0.07 0.02 0.00 0.00 0.00 0.01 0.01 0.01 0.00 0.00 0.00 0.00 0.01 0.00 0.00 0.00 0.00 0.00 0.00 0.00 0.00 0.00 0.00 0.00 0.00 0.00 0.00 0.00 0.00 0.00 0.00 0.00 0.00 0.00 0.00 0.00 0.00 0.00 0.00
0.05 0.06 0.09 0.08 0.07 0.04 0.01 0.00 0.00 0.01 0.01 0.00 0.00 0.00 0.01 0.01 0.01 0.01 0.00 0.00 0.00 0.00 0.00 0.00 0.00 0.00 0.00 0.00 0.00 0.00 0.00 0.00 0.00 0.00 0.00 0.00 0.00 0.00 0.00 0.00 0.00 0.00 0.00 0.00
0.07 0.09 0.09 0.07 0.06 0.02 0.01 0.00 0.00 0.01 0.01 0.00 0.00 0.00 0.00 0.00 0.00 0.00 0.00 0.00 0.00 0.00 0.00 0.00 0.00 0.00 0.00 0.00 0.00 0.00 0.00 0.00 0.00 0.00 0.00 0.00 0.00 0.00 0.00 0.00 0.00 0.00 0.00 0.00
0.03 0.05 0.06 0.04 0.05 0.02 0.01 0.01 0.01 0.01 0.00 0.00 0.00 0.00 0.00 0.00 0.00 0.00 0.00 0.00 0.00 0.00 0.00 0.00 0.00 0.00 0.00 0.00 0.00 0.00 0.00 0.00 0.00 0.00 0.00 0.00 0.00 0.00 0.00 0.00 0.00 0.00 0.00 0.00
0.01 0.01 0.02 0.02 0.02 0.01 0.01 0.00 0.01 0.01 0.00 0.01 0.01 0.01 0.01 0.00 0.00 0.00 0.00 0.00 0.00 0.00 0.00 0.00 0.00 0.00 0.00 0.00 0.00 0.00 0.00 0.00 0.00 0.00 0.00 0.00 0.00 0.00 0.00 0.00 0.00 0.00 0.00 0.00
0.01 0.01 0.01 0.01 0.01 0.01 0.00 0.00 0.00 0.00 0.00 0.00 0.00 0.00 0.00 0.00 0.00 0.00 0.00 0.00 0.00 0.00 0.00 0.00 0.00 0.00 0.00 0.00 0.00 0.00 0.00 0.00 0.01 0.01 0.01 0.01 0.01 0.01 0.00 0.00 0.00 0.00 0.00 0.00
0.01 0.01 0.01 0.02 0.01 0.01 0.01 0.00 0.00 0.00 0.00 0.00 0.00 0.00 0.00 0.00 0.00 0.00 0.00 0.00 0.00 0.00 0.00 0.00 0.01 0.01 0.01 0.01 0.01 0.01 0.01 0.01 0.01 0.01 0.01 0.01 0.01 0.01 0.01 0.01 0.01 0.01 0.01 0.01
0.01 0.01 0.01 0.02 0.01 0.01 0.01 0.00 0.00 0.00 0.00 0.00 0.00 0.00 0.00 0.00 0.00 0.00 0.00 0.00 0.00 0.00 0.01 0.01 0.01 0.01 0.01 0.01 0.01 0.02 0.02 0.02 0.02 0.02 0.02 0.02 0.02 0.02 0.02 0.01 0.02 0.02 0.02 0.02
MSLP
1017.56 1017.94 1018.25 1018.50 1018.71 1018.89 1019.02 1019.10 1019.10 1018.98 1018.74 1018.35 1017.84 1017.23 1016.56 1015.90 1015.28 1014.76 1014.37 1014.10 1013.95 1013.90 1013.93 1014.02 1014.16 1014.35 1014.59 1014.88 1015.24 1015.65 1016.11 1016.58 1017.06 1017.49 1017.88 1018.19 1018.43 1018.60 1018.74 1018.85 1018.96 1019.08 1019.24 1019.43
1017.01 1017.34 1017.63 1017.93 1018.23 1018.56 1018.88 1019.15 1019.32 1019.35 1019.20 1018.84 1018.29 1017.60 1016.82 1016.03 1015.30 1014.68 1014.21 1013.89 1013.70 1013.63 1013.63 1013.67 1013.75 1013.86 1014.01 1014.22 1014.50 1014.86 1015.30 1015.79 1016.30 1016.80 1017.25 1017.62 1017.90 1018.10 1018.22 1018.31 1018.38 1018.46 1018.57 1018.74
1016.35 1016.62 1016.89 1017.21 1017.61 1018.08 1018.58 1019.04 1019.40 1019.56 1019.48 1019.15 1018.56 1017.79 1016.89 1015.98 1015.14 1014.44 1013.92 1013.58 1013.40 1013.33 1013.33 1013.37 1013.41 1013.46 1013.53 1013.65 1013.84 1014.13 1014.52 1014.99 1015.51 1016.03 1016.52 1016.94 1017.26 1017.48 1017.61 1017.68 1017.72 1017.78 1017.87 1018.01
1015.68 1015.87 1016.11 1016.45 1016.92 1017.51 1018.16 1018.79 1019.28 1019.56 1019.54 1019.20 1018.57 1017.70 1016.70 1015.68 1014.75 1013.98 1013.44 1013.11 1012.96 1012.95 1013.00 1013.08 1013.12 1013.15 1013.17 1013.21 1013.32 1013.52 1013.83 1014.24 1014.73 1015.24 1015.74 1016.17 1016.50 1016.73 1016.87 1016.93 1016.96 1017.00 1017.08 1017.22
1015.03 1015.16 1015.36 1015.71 1016.23 1016.90 1017.66 1018.40 1018.99 1019.33 1019.34 1018.99 1018.30 1017.34 1016.24 1015.12 1014.11 1013.31 1012.76 1012.47 1012.40 1012.48 1012.63 1012.79 1012.89 1012.94 1012.94 1012.93 1012.96 1013.08 1013.30 1013.63 1014.04 1014.49 1014.95 1015.35 1015.67 1015.89 1016.01 1016.07 1016.10 1016.13 1016.20 1016.33
1014.43 1014.51 1014.69 1015.03 1015.57 1016.29 1017.10 1017.90 1018.55 1018.92 1018.93 1018.55 1017.79 1016.76 1015.57 1014.38 1013.33 1012.51 1011.99 1011.77 1011.79 1011.99 1012.27 1012.54 1012.74 1012.84 1012.86 1012.84 1012.82 1012.84 1012.96 1013.18 1013.48 1013.84 1014.21 1014.55 1014.82 1015.00 1015.10 1015.14 1015.15 1015.17 1015.24 1015.36
1013.87 1013.92 1014.08 1014.42 1014.96 1015.69 1016.53 1017.35 1018.00 1018.38 1018.37 1017.96 1017.16 1016.08 1014.84 1013.62 1012.55 1011.74 1011.27 1011.12 1011.25 1011.58 1011.99 1012.38 1012.69 1012.88 1012.95 1012.93 1012.87 1012.82 1012.84 1012.94 1013.12 1013.35 1013.60 1013.84 1014.02 1014.14 1014.19 1014.19 1014.18 1014.19 1014.23 1014.34
1013.29 1013.36 1013.52 1013.86 1014.40 1015.13 1015.95 1016.76 1017.40 1017.76 1017.74 1017.32 1016.51 1015.43 1014.19 1012.98 1011.94 1011.17 1010.76 1010.69 1010.92 1011.35 1011.87 1012.39 1012.80 1013.07 1013.19 1013.19 1013.10 1013.00 1012.92 1012.90 1012.95 1013.04 1013.16 1013.28 1013.36 1013.38 1013.37 1013.32 1013.27 1013.24 1013.26 1013.35
1012.65 1012.76 1012.97 1013.33 1013.88 1014.59 1015.39 1016.16 1016.78 1017.13 1017.11 1016.71 1015.94 1014.91 1013.74 1012.60 1011.62 1010.93 1010.58 1010.58 1010.88 1011.39 1011.99 1012.58 1013.07 1013.40 1013.56 1013.57 1013.48 1013.32 1013.17 1013.04 1012.97 1012.93 1012.92 1012.91 1012.88 1012.81 1012.72 1012.60 1012.50 1012.42 1012.41 1012.46
1011.92 1012.13 1012.40 1012.81 1013.36 1014.06 1014.83 1015.57 1016.16 1016.50 1016.51 1016.16 1015.48 1014.56 1013.52 1012.50 1011.64 1011.05 1010.78 1010.84 1011.18 1011.72 1012.35 1012.96 1013.47 1013.83 1014.01 1014.03 1013.92 1013.74 1013.53 1013.33 1013.15 1013.01 1012.89 1012.77 1012.63 1012.48 1012.29 1012.11 1011.94 1011.80 1011.73 1011.73
1011.12 1011.45 1011.82 1012.28 1012.86 1013.54 1014.26 1014.96 1015.51 1015.85 1015.90 1015.64 1015.10 1014.34 1013.49 1012.65 1011.95 1011.49 1011.31 1011.41 1011.76 1012.29 1012.90 1013.48 1013.97 1014.32 1014.49 1014.50 1014.39 1014.19 1013.95 1013.70 1013.46 1013.25 1013.05 1012.85 1012.63 1012.39 1012.14 1011.88 1011.63 1011.43 1011.28 1011.21
1010.30 1010.77 1011.25 1011.77 1012.36 1013.00 1013.67 1014.30 1014.81 1015.13 1015.23 1015.07 1014.69 1014.13 1013.50 1012.88 1012.39 1012.08 1012.00 1012.15 1012.50 1012.99 1013.54 1014.06 1014.50 1014.79 1014.94 1014.94 1014.82 1014.62 1014.37 1014.11 1013.85 1013.60 1013.36 1013.11 1012.84 1012.54 1012.23 1011.90 1011.58 1011.29 1011.06 1010.90
1009.52 1010.13 1010.71 1011.28 1011.86 1012.45 1013.04 1013.56 1014.00 1014.29 1014.41 1014.35 1014.13 1013.79 1013.40 1013.03 1012.76 1012.62 1012.67 1012.88 1013.24 1013.69 1014.17 1014.62 1014.98 1015.22 1015.32 1015.31 1015.19 1015.00 1014.77 1014.53 1014.28 1014.04 1013.78 1013.51 1013.22 1012.88 1012.52 1012.13 1011.75 1011.38 1011.05 1010.79
1008.85 1009.57 1010.23 1010.82 1011.36 1011.87 1012.33 1012.72 1013.04 1013.27 1013.39 1013.40 1013.33 1013.20 1013.06 1012.94 1012.91 1012.97 1013.16 1013.46 1013.85 1014.28 1014.70 1015.08 1015.38 1015.57 1015.64 1015.62 1015.52 1015.36 1015.16 1014.95 1014.74 1014.51 1014.28 1014.01 1013.70 1013.35 1012.96 1012.52 1012.07 1011.63 1011.21 1010.84
1008.33 1009.13 1009.81 1010.39 1010.86 1011.24 1011.53 1011.77 1011.94 1012.07 1012.16 1012.22 1012.27 1012.33 1012.41 1012.55 1012.75 1013.03 1013.39 1013.80 1014.24 1014.68 1015.09 1015.44 1015.70 1015.86 1015.92 1015.91 1015.83 1015.70 1015.55 1015.38 1015.21 1015.02 1014.80 1014.55 1014.25 1013.89 1013.47 1013.00 1012.50 1011.98 1011.48 1011.00
1007.95 1008.77 1009.44 1009.96 1010.32 1010.55 1010.67 1010.72 1010.73 1010.74 1010.78 1010.86 1011.01 1011.22 1011.52 1011.88 1012.32 1012.82 1013.35 1013.90 1014.44 1014.93 1015.36 1015.71 1015.97 1016.13 1016.21 1016.22 1016.17 1016.08 1015.97 1015.84 1015.70 1015.54 1015.34 1015.10 1014.80 1014.44 1014.00 1013.50 1012.96 1012.38 1011.80 1011.23
1007.67 1008.47 1009.08 1009.51 1009.74 1009.80 1009.75 1009.62 1009.49 1009.39 1009.37 1009.47 1009.69 1010.04 1010.52 1011.10 1011.76 1012.46 1013.17 1013.86 1014.51 1015.09 1015.58 1015.97 1016.26 1016.46 1016.57 1016.61 1016.60 1016.55 1016.47 1016.36 1016.23 1016.08 1015.88 1015.64 1015.33 1014.95 1014.49 1013.97 1013.39 1012.77 1012.12 1011.48
1007.44 1008.16 1008.69 1009.00 1009.11 1009.04 1008.84 1008.58 1008.33 1008.16 1008.12 1008.24 1008.54 1009.02 1009.65 1010.41 1011.25 1012.13 1013.01 1013.84 1014.61 1015.28 1015.85 1016.31 1016.65 1016.90 1017.06 1017.14 1017.16 1017.13 1017.06 1016.95 1016.81 1016.64 1016.41 1016.14 1015.80 1015.40 1014.91 1014.36 1013.75 1013.09 1012.40 1011.70
1007.19 1007.80 1008.23 1008.44 1008.45 1008.29 1008.01 1007.69 1007.40 1007.22 1007.21 1007.38 1007.77 1008.37 1009.14 1010.04 1011.03 1012.05 1013.06 1014.01 1014.88 1015.64 1016.28 1016.80 1017.20 1017.50 1017.70 1017.82 1017.86 1017.83 1017.75 1017.62 1017.44 1017.22 1016.94 1016.61 1016.22 1015.76 1015.24 1014.65 1014.01 1013.31 1012.58 1011.84
1006.88 1007.39 1007.72 1007.87 1007.83 1007.64 1007.36 1007.07 1006.83 1006.71 1006.78 1007.06 1007.56 1008.27 1009.15 1010.17 1011.26 1012.37 1013.46 1014.48 1015.41 1016.22 1016.91 1017.48 1017.93 1018.26 1018.50 1018.64 1018.68 1018.65 1018.54 1018.36 1018.12 1017.82 1017.46 1017.05 1016.58 1016.05 1015.47 1014.83 1014.14 1013.40 1012.63 1011.84
1006.56 1006.96 1007.23 1007.34 1007.32 1007.18 1006.98 1006.79 1006.68 1006.71 1006.92 1007.34 1007.97 1008.79 1009.78 1010.87 1012.01 1013.16 1014.27 1015.30 1016.24 1017.06 1017.76 1018.34 1018.81 1019.16 1019.41 1019.55 1019.60 1019.54 1019.39 1019.15 1018.83 1018.44 1017.98 1017.47 1016.90 1016.28 1015.61 1014.89 1014.13 1013.34 1012.52 1011.69
1006.26 1006.60 1006.84 1006.98 1007.02 1007.00 1006.95 1006.94 1007.02 1007.24 1007.64 1008.22 1008.99 1009.92 1010.97 1012.10 1013.25 1014.38 1015.45 1016.44 1017.33 1018.10 1018.77 1019.33 1019.78 1020.13 1020.37 1020.51 1020.53 1020.45 1020.25 1019.95 1019.54 1019.05 1018.49 1017.86 1017.18 1016.44 1015.67 1014.86 1014.02 1013.14 1012.25 1011.36
1006.12 1006.43 1006.69 1006.89 1007.04 1007.17 1007.32 1007.52 1007.82 1008.26 1008.85 1009.61 1010.51 1011.52 1012.62 1013.74 1014.85 1015.91 1016.90 1017.79 1018.58 1019.27 1019.86 1020.36 1020.77 1021.09 1021.31 1021.43 1021.43 1021.31 1021.07 1020.71 1020.23 1019.65 1018.98 1018.24 1017.43 1016.58 1015.68 1014.76 1013.81 1012.84 1011.86 1010.89
1006.24 1006.57 1006.89 1007.18 1007.47 1007.76 1008.10 1008.51 1009.03 1009.67 1010.45 1011.35 1012.35 1013.42 1014.52 1015.60 1016.64 1017.59 1018.45 1019.21 1019.87 1020.44 1020.92 1021.33 1021.68 1021.95 1022.14 1022.23 1022.21 1022.08 1021.80 1021.39 1020.85 1020.20 1019.43 1018.58 1017.66 1016.69 1015.68 1014.63 1013.56 1012.49 1011.41 1010.35
1006.75 1007.14 1007.54 1007.93 1008.34 1008.79 1009.29 1009.87 1010.56 1011.36 1012.26 1013.26 1014.32 1015.40 1016.47 1017.49 1018.42 1019.24 1019.96 1020.56 1021.07 1021.50 1021.87 1022.18 1022.44 1022.65 1022.80 1022.87 1022.83 1022.68 1022.39 1021.95 1021.37 1020.66 1019.83 1018.90 1017.88 1016.80 1015.68 1014.52 1013.35 1012.17 1011.00 1009.84
1007.72 1008.19 1008.68 1009.16 1009.67 1010.22 1010.82 1011.51 1012.30 1013.18 1014.15 1015.18 1016.25 1017.30 1018.31 1019.24 1020.05 1020.73 1021.30 1021.75 1022.11 1022.39 1022.63 1022.83 1023.01 1023.15 1023.25 1023.29 1023.24 1023.08 1022.78 1022.34 1021.74 1021.01 1020.14 1019.15 1018.07 1016.92 1015.72 1014.48 1013.22 1011.96 1010.72 1009.50
Thickness
5575 5576 5586 5600 5606 5612 5616 5616 5619 5631 5643 5639 5638 5646 5661 5672 5675 5679 5685 5690 5695 5700 5708 5712 5713 5713 5711 5710 5708 5706 5702 5699 5695 5692 5688 5686 5686 5686 5685 5684 5682 5680 5678 5675
5562 5573 5596 5600 5601 5601 5603 5605 5612 5622 5630 5628 5628 5637 5654 5665 5670 5677 5681 5686 5691 5697 5702 5707 5709 5709 5708 5707 5706 5705 5703 5701 5698 5695 5692 5689 5687 5686 5684 5682 5681 5679 5677 5676
5565 5587 5591 5588 5589 5590 5594 5598 5604 5606 5612 5615 5612 5620 5641 5659 5668 5675 5681 5686 5690 5693 5696 5700 5702 5704 5704 5704 5704 5704 5703 5701 5699 5696 5691 5688 5685 5684 5682 5682 5682 5680 5678 5675
5560 5578 5579 5578 5583 5587 5588 5601 5600 5598 5591 5591 5597 5597 5632 5650 5659 5668 5675 5681 5685 5690 5694 5696 5698 5699 5701 5702 5703 5702 5701 5700 5698 5695 5691 5688 5686 5685 5687 5685 5684 5681 5678 5676
5556 5570 5570 5572 5583 5586 5588 5595 5590 5587 5582 5579 5588 5586 5615 5641 5649 5662 5672 5678 5683 5687 5689 5691 5694 5696 5698 5698 5698 5698 5698 5697 5696 5694 5692 5688 5687 5687 5686 5684 5683 5681 5679 5677
5552 5564 5567 5573 5581 5581 5581 5577 5574 5572 5566 5563 5583 5579 5600 5630 5647 5659 5668 5674 5678 5681 5684 5686 5688 5689 5690 5691 5691 5692 5691 5692 5692 5691 5690 5688 5687 5685 5683 5682 5682 5681 5679 5678
5534 5544 5557 5567 5564 5566 5567 5558 5550 5549 5550 5562 5585 5578 5601 5636 5651 5657 5661 5666 5670 5672 5673 5675 5676 5677 5679 5681 5682 5683 5683 5684 5685 5685 5686 5686 5685 5683 5681 5681 5680 5679 5678 5677
5524 5531 5546 5556 5562 5561 5562 5559 5550 5548 5552 5562 5572 5576 5609 5637 5646 5652 5656 5657 5659 5661 5662 5664 5666 5667 5668 5671 5672 5673 5675 5676 5677 5678 5680 5681 5681 5680 5679 5679 5678 5677 5677 5677
5527 5533 5550 5555 5562 5560 5554 5553 5562 5552 5547 5547 5561 5584 5610 5627 5633 5638 5642 5644 5645 5648 5651 5652 5654 5656 5658 5660 5662 5663 5664 5666 5668 5670 5672 5673 5674 5674 5674 5674 5674 5674 5674 5673
5533 5530 5541 5547 5548 5549 5554 5554 5545 5538 5537 5539 5555 5572 5592 5611 5618 5625 5628 5630 5633 5636 5637 5640 5641 5643 5645 5648 5650 5652 5654 5656 5658 5660 5662 5664 5666 5667 5668 5667 5667 5667 5667 5666
5524 5521 5527 5533 5536 5542 5542 5541 5542 5539 5538 5541 5546 5567 5607 5610 5614 5616 5618 5620 5621 5623 5624 5626 5628 5631 5633 5635 5637 5639 5642 5644 5646 5649 5651 5654 5656 5658 5658 5659 5660 5659 5659 5658
5517 5514 5514 5525 5536 5544 5542 5544 5541 5534 5534 5542 5545 5561 5603 5606 5606 5606 5606 5608 5609 5611 5612 5614 5615 5617 5619 5621 5623 5625 5628 5631 5634 5637 5639 5642 5644 5646 5647 5649 5650 5650 5650 5649
5515 5503 5502 5505 5509 5520 5528 5536 5540 5540 5535 5531 5533 5552 5590 5592 5592 5593 5593 5594 5595 5596 5598 5599 5602 5603 5604 5606 5608 5611 5613 5616 5619 5623 5626 5628 5631 5633 5635 5637 5638 5639 5639 5639
5515 5503 5506 5513 5522 5525 5525 5530 5533 5531 5526 5527 5536 5551 5567 5574 5576 5579 5579 5579 5580 5582 5582 5584 5584 5586 5588 5591 5593 5596 5599 5601 5604 5607 5610 5613 5616 5619 5621 5623 5625 5626 5627 5627
5504 5494 5500 5512 5522 5522 5522 5524 5526 5526 5528 5526 5538 5547 5559 5566 5566 5566 5566 5566 5566 5567 5568 5568 5569 5570 5572 5575 5577 5580 5583 5586 5589 5592 5595 5597 5600 5602 5605 5608 5610 5612 5613 5614
5492 5484 5488 5491 5505 5509 5510 5516 5520 5522 5527 5528 5533 5540 5557 5557 5555 5552 5551 5552 5551 5552 5552 5552 5553 5554 5556 5558 5560 5563 5566 5569 5572 5575 5578 5580 5583 5586 5589 5591 5594 5596 5597 5599
5479 5475 5473 5477 5488 5489 5485 5508 5517 5522 5528 5528 5528 5541 5546 5542 5542 5541 5539 5538 5536 5535 5535 5536 5536 5537 5538 5540 5542 5545 5548 5551 5554 5556 5559 5561 5564 5568 5571 5573 5576 5579 5581 5582
5471 5467 5463 5465 5466 5467 5497 5516 5517 5519 5524 5525 5528 5533 5535 5534 5531 5525 5522 5520 5518 5519 5518 5518 5518 5520 5521 5523 5524 5527 5529 5532 5535 5538 5541 5543 5546 5549 5552 5555 5558 5561 5563 5565
5471 5463 5457 5456 5458 5467 5492 5506 5510 5510 5512 5518 5519 5520 5518 5518 5515 5508 5505 5505 5502 5501 5501 5501 5501 5502 5504 5506 5507 5509 5511 5514 5517 5520 5522 5525 5527 5531 5535 5538 5541 5543 5546 5548
5461 5462 5452 5450 5452 5454 5490 5502 5506 5501 5492 5502 5503 5501 5501 5505 5500 5499 5491 5488 5485 5484 5483 5483 5484 5486 5487 5487 5488 5490 5492 5494 5497 5500 5503 5506 5510 5514 5518 5521 5524 5526 5528 5531
5445 5446 5446 5445 5446 5459 5482 5488 5492 5478 5487 5488 5488 5486 5485 5484 5481 5476 5472 5469 5467 5465 5464 5465 5466 5466 5467 5468 5468 5470 5473 5475 5477 5481 5485 5489 5493 5496 5500 5504 5507 5509 5512 5514
5444 5441 5441 5442 5440 5451 5467 5472 5472 5470 5466 5467 5467 5466 5463 5459 5457 5454 5452 5449 5447 5446 5445 5445 5444 5445 5446 5446 5447 5451 5454 5456 5458 5462 5468 5472 5477 5480 5483 5487 5490 5491 5494 5496
5446 5449 5449 5451 5448 5445 5447 5447 5444 5448 5446 5445 5444 5443 5442 5440 5437 5434 5432 5430 5428 5426 5424 5423 5423 5424 5425 5425 5426 5429 5434 5436 5439 5444 5449 5454 5459 5462 5465 5468 5471 5473 5475 5477
5432 5438 5439 5432 5427 5425 5423 5423 5423 5425 5424 5423 5422 5422 5422 5419 5417 5414 5412 5410 5407 5406 5404 5403 5403 5404 5405 5405 5407 5408 5412 5416 5420 5425 5431 5436 5440 5444 5446 5448 5451 5454 5457 5458
5416 5420 5423 5419 5409 5405 5404 5404 5402 5402 5401 5399 5398 5399 5399 5399 5397 5394 5392 5389 5387 5386 5384 5384 5384 5385 5386 5387 5388 5389 5392 5397 5402 5407 5412 5417 5420 5424 5427 5430 5431 5433 5436 5437
5389 5395 5407 5410 5398 5398 5393 5386 5384 5382 5379 5377 5377 5376 5375 5376 5375 5373 5370 5368 5366 5365 5364 5364 5364 5365 5365 5366 5369 5370 5373 5376 5382 5388 5393 5396 5400 5403 5406 5410 5413 5415 5415 5418